FW3814 Weather Reports


time (UTC)temp
C
wind
direction
speed
KPH
gust
KPH
rain 1hr
cm
rain 24hr
cm
rain mn
cm
humidity
%
barometer
mb
20260902100005 27 178 1.6 8.0 0.00 2.11 0.00 59 1019.3
20260902095505 27 180 1.6 8.0 0.00 2.11 0.00 59 1019.1
20260902095005 27 170 1.6 8.0 0.00 2.11 0.00 55 1019.2
20260902094505 27 0 0.0 0.0 0.00 2.11 0.00 60 1019.4
20260902094005 26 0 0.0 0.0 0.00 2.11 0.00 61 1019.4
20260902093505 26 315 0.0 1.6 0.00 2.11 0.00 61 1019.5
20260902093005 26 315 1.6 3.2 0.00 2.11 0.00 61 1019.3
20260902092505 26 267 1.6 6.4 0.00 2.11 0.00 60 1019.4
20260902092005 26 202 0.0 6.4 0.00 2.11 0.00 60 1019.5
20260902091526 27 202 0.0 6.4 0.00 2.11 0.00 61 1019.4
20260902091005 27 0 0.0 0.0 0.00 2.11 0.00 61 1019.5
20260902090505 26 0 0.0 0.0 0.00 2.11 0.00 61 1019.5
20260902090005 26 179 1.6 9.7 0.00 2.11 0.00 61 1019.5
20260902085505 26 146 4.8 9.7 0.00 2.11 0.00 60 1019.5
20260902085005 26 120 3.2 9.7 0.00 2.11 0.00 61 1019.4
20260902084505 26 157 1.6 6.4 0.00 2.11 0.00 62 1019.3
20260902084005 26 154 1.6 6.4 0.00 2.11 0.00 62 1019.3
20260902083526 26 112 0.0 3.2 0.00 2.11 0.00 62 1019.3
20260902083005 25 176 0.0 4.8 0.00 2.13 0.00 63 1019.2
20260902082505 25 152 1.6 6.4 0.00 2.13 0.00 62 1019.2
20260902082005 25 135 1.6 6.4 0.00 2.13 0.00 62 1019.2
20260902081505 25 0 0.0 0.0 0.00 2.13 0.00 64 1019.3
20260902081005 25 0 0.0 0.0 0.00 2.13 0.00 65 1019.3
20260902080505 25 0 0.0 0.0 0.00 2.13 0.00 66 1019.3
20260902080005 25 0 0.0 0.0 0.00 2.13 0.00 66 1019.1
20260902075505 25 0 0.0 0.0 0.00 2.13 0.00 69 1019.2
20260902075026 25 67 0.0 1.6 0.00 2.13 0.00 69 1019.2
20260902074505 24 30 1.6 6.4 0.00 2.13 0.00 69 1019.1
20260902074005 23 28 1.6 6.4 0.00 2.13 0.00 68 1019.0
20260902073505 23 11 1.6 6.4 0.00 2.13 0.00 68 1019.2
20260902073005 23 12 3.2 6.4 0.00 2.13 0.00 68 1019.2
20260902072505 23 16 1.6 6.4 0.00 2.13 0.00 68 1019.1
20260902072005 23 22 0.0 6.4 0.00 2.13 0.00 69 1019.2
20260902071505 23 51 1.6 6.4 0.00 2.13 0.00 69 1019.2
20260902071026 23 29 3.2 6.4 0.00 2.13 0.00 69 1019.0
20260902070505 24 27 3.2 6.4 0.00 2.13 0.00 69 1019.1
20260902070007 24 51 1.6 3.2 0.00 2.13 0.00 69 1018.8
20260902065526 24 0 0.0 0.0 0.00 2.13 0.00 70 1018.9
20260902065005 23 44 0.0 3.2 0.00 2.13 0.00 71 1018.8
20260902064526 23 44 0.0 3.2 0.00 2.13 0.00 71 1018.8
20260902064005 22 22 1.6 6.4 0.00 2.13 0.00 72 1018.8
20260902063505 22 12 3.2 6.4 0.00 2.13 0.00 72 1018.6
20260902063005 22 1 3.2 6.4 0.00 2.13 0.00 72 1018.8
20260902062505 22 4 1.6 6.4 0.00 2.13 0.00 73 1018.9
20260902062005 22 9 3.2 8.0 0.00 2.13 0.00 76 1018.7
20260902061505 21 13 4.8 8.0 0.00 2.13 0.00 77 1018.6
20260902061005 21 18 3.2 8.0 0.00 2.13 0.00 77 1018.6
20260902060505 21 5 0.0 6.4 0.00 2.13 0.00 78 1018.7
20260902060005 21 15 3.2 6.4 0.00 2.13 0.00 78 1018.7
20260902055505 21 17 3.2 6.4 0.00 2.13 0.00 78 1018.5
20260902055005 21 12 1.6 4.8 0.00 2.13 0.00 79 1018.5
20260902054505 20 11 1.6 6.4 0.00 2.13 0.00 79 1018.5
20260902054026 20 9 1.6 6.4 0.00 2.13 0.00 79 1018.5
20260902053505 20 360 0.0 3.2 0.00 2.13 0.00 79 1018.4
20260902053005 20 0 0.0 0.0 0.00 2.13 0.00 79 1018.6
20260902052526 20 0 0.0 0.0 0.00 2.13 0.00 79 1018.4
20260902052005 20 0 0.0 0.0 0.00 2.13 0.00 79 1018.4
20260902051505 20 0 0.0 0.0 0.00 2.13 0.00 79 1018.1
20260902051026 20 0 0.0 0.0 0.00 2.13 0.00 79 1017.9
20260902050505 20 0 0.0 0.0 0.00 2.13 0.00 78 1018.1
20260902050007 20 0 0.0 0.0 0.00 2.13 0.00 78 1018.4
20260902045505 20 0 0.0 0.0 0.00 2.13 0.00 78 1018.1
20260902045005 20 0 0.0 0.0 0.00 2.13 0.00 78 1018.0
20260902044505 20 15 0.0 3.2 0.00 2.13 0.00 78 1018.1
20260902044005 20 17 1.6 3.2 0.00 2.13 0.00 78 1018.1
20260902043505 20 5 1.6 4.8 0.00 2.13 0.00 77 1017.9
20260902043005 20 2 3.2 6.4 0.00 2.13 0.00 77 1018.1
20260902042526 20 5 4.8 6.4 0.00 2.13 0.00 76 1018.0
20260902042005 20 9 3.2 6.4 0.00 2.13 0.00 76 1017.9
20260902041505 20 19 0.0 3.2 0.00 2.13 0.00 76 1017.9
20260902041005 20 0 0.0 0.0 0.00 2.13 0.00 76 1017.9
20260902040505 21 0 0.0 0.0 0.00 2.13 0.00 75 1017.9
20260902040005 21 0 0.0 0.0 0.00 2.13 0.00 75 1018.0
20260902035505 21 0 0.0 0.0 0.00 2.13 0.00 75 1017.9
20260902035005 21 15 1.6 4.8 0.00 2.13 0.00 76 1017.9
20260902034505 21 17 1.6 4.8 0.00 2.13 0.00 76 1017.7
20260902034005 21 22 0.0 4.8 0.00 2.13 0.00 76 1017.7
20260902033505 21 0 0.0 0.0 0.00 2.13 0.00 76 1017.9
20260902033005 21 0 0.0 0.0 0.00 2.13 0.00 76 1018.1
20260902032505 21 22 1.6 4.8 0.00 2.13 0.00 76 1018.0
20260902032005 21 22 1.6 4.8 0.00 2.13 0.00 76 1018.1
20260902031505 20 0 0.0 0.0 0.00 2.13 0.00 76 1018.1
20260902031005 20 0 0.0 0.0 0.00 2.13 0.00 75 1018.0
20260902030505 20 0 0.0 0.0 0.00 2.13 0.00 75 1017.9
20260902030005 21 11 0.0 3.2 0.00 2.13 0.00 75 1018.1
20260902025505 21 11 0.0 3.2 0.00 2.13 0.00 75 1018.0
20260902025026 21 0 0.0 0.0 0.00 2.13 0.00 75 1018.0
20260902024505 21 0 0.0 0.0 0.00 2.13 0.00 75 1017.7
20260902024005 21 11 3.2 6.4 0.00 2.13 0.00 74 1018.0
20260902023505 21 12 6.4 8.0 0.00 2.13 0.00 74 1017.9
20260902023005 21 16 6.4 8.0 0.00 2.13 0.00 74 1018.0
20260902022505 21 8 4.8 8.0 0.00 2.13 0.00 74 1017.9
20260902022005 21 352 3.2 6.4 0.00 2.13 0.00 74 1017.9
20260902021505 21 6 3.2 4.8 0.00 2.13 0.00 74 1017.9
20260902021005 21 17 3.2 4.8 0.00 2.13 0.00 74 1017.9
20260902020505 21 18 4.8 6.4 0.00 2.13 0.00 74 1017.9
20260902020026 21 17 4.8 6.4 0.00 2.13 0.00 74 1017.7
20260902015505 21 22 1.6 6.4 0.00 2.13 0.00 74 1017.7
20260902015005 21 0 0.0 0.0 0.00 2.13 0.00 74 1017.8
20260902014505 21 22 0.0 3.2 0.00 2.13 0.00 75 1017.8
20260902014005 21 9 1.6 4.8 0.00 2.13 0.00 75 1017.8
20260902013505 21 7 1.6 4.8 0.00 2.13 0.00 74 1017.8
20260902013005 21 0 0.0 0.0 0.00 2.13 0.00 74 1017.8
20260902012505 21 0 0.0 0.0 0.00 2.13 0.00 74 1017.8
20260902012026 21 0 0.0 0.0 0.00 2.13 0.00 74 1017.9
20260902011505 21 0 0.0 0.0 0.00 2.13 0.00 75 1017.6
20260902011005 21 16 3.2 8.0 0.00 2.13 0.00 75 1017.9
20260902010505 21 14 6.4 8.0 0.00 2.13 0.00 76 1017.8
20260902010005 21 9 4.8 8.0 0.00 2.13 0.00 76 1017.9
20260902005505 21 5 1.6 6.4 0.00 2.13 0.00 76 1018.0
20260902005005 21 337 0.0 3.2 0.00 2.13 0.00 75 1018.0
20260902004526 21 337 0.0 3.2 0.00 2.13 0.00 75 1017.9
20260902004005 21 0 0.0 0.0 0.00 2.13 0.00 75 1017.9
20260902003505 21 0 0.0 0.0 0.00 2.13 0.00 74 1018.0
20260902003005 21 0 0.0 0.0 0.00 2.13 0.00 74 1017.9
20260902002526 21 0 0.0 0.0 0.00 2.13 0.00 74 1017.7
20260902002005 21 0 0.0 0.0 0.00 2.13 0.00 75 1018.0
20260902001505 21 360 0.0 3.2 0.00 2.13 0.00 75 1018.0
20260902001005 21 360 1.6 3.2 0.00 2.13 0.00 75 1018.0
20260902000505 21 354 1.6 3.2 0.00 2.13 0.00 74 1017.7
20260902000005 21 325 0.0 3.2 0.00 2.13 0.00 74 1018.1
20260901235505 21 0 0.0 0.0 0.00 2.13 0.00 74 1017.9
20260901235005 21 0 0.0 0.0 0.00 2.13 0.00 74 1018.0
20260901234505 21 360 0.0 4.8 0.00 2.13 0.00 74 1018.0
20260901234005 21 360 1.6 4.8 0.00 2.13 0.00 74 1017.9
20260901233505 21 360 1.6 4.8 0.00 2.13 0.00 74 1018.0
20260901233005 21 360 0.0 3.2 0.00 2.13 0.00 74 1017.9
20260901232505 21 0 0.0 0.0 0.00 2.13 0.00 73 1017.7
20260901232005 22 0 0.0 0.0 0.00 2.13 0.00 73 1017.9
20260901231505 22 0 0.0 0.0 0.00 2.13 0.00 73 1018.1
20260901231003 22 0 0.0 0.0 0.00 2.13 0.00 73 1017.9
20260901230503 22 0 0.0 0.0 0.00 2.13 0.00 73 1017.9
20260901230024 22 15 1.6 3.2 0.00 2.13 0.00 73 1018.0
20260901225503 22 15 1.6 3.2 0.00 2.13 0.00 72 1018.1
20260901225003 22 0 0.0 0.0 0.00 2.13 0.00 72 1018.1
20260901224503 22 0 0.0 0.0 0.00 2.13 0.00 72 1017.9
20260901224003 22 0 0.0 0.0 0.00 2.13 0.00 72 1017.9
20260901223503 22 0 0.0 0.0 0.00 2.13 0.00 70 1018.1
20260901223003 22 32 0.0 3.2 0.00 2.13 0.00 70 1017.9
20260901222503 22 14 3.2 6.4 0.00 2.13 0.00 70 1018.1
20260901222003 22 9 4.8 6.4 0.00 2.13 0.00 70 1018.0
20260901221503 22 356 4.8 6.4 0.00 2.13 0.00 70 1018.1
20260901221003 22 355 4.8 6.4 0.00 2.13 0.00 70 1018.0
20260901220503 22 2 4.8 6.4 0.00 2.13 0.00 69 1017.9
20260901220024 22 8 4.8 6.4 0.00 2.13 0.00 69 1018.0
20260901215503 22 12 3.2 6.4 0.00 2.13 2.13 69 1017.8
20260901215003 22 4 1.6 6.4 0.00 2.13 2.13 69 1017.9
20260901214503 22 347 0.0 3.2 0.00 2.13 2.13 69 1018.0
20260901214003 22 360 0.0 3.2 0.00 2.13 2.13 68 1017.8
20260901213524 22 0 0.0 0.0 0.00 2.13 2.13 68 1018.0
20260901213003 22 0 0.0 0.0 0.00 2.13 2.13 68 1018.0
20260901212503 22 0 0.0 0.0 0.00 2.13 2.13 68 1018.0
20260901212003 22 0 0.0 0.0 0.00 2.13 2.13 67 1018.0
20260901211503 22 0 0.0 0.0 0.00 2.13 2.13 67 1018.0
20260901211003 23 0 0.0 0.0 0.00 2.13 2.13 66 1017.9
20260901210503 23 0 0.0 0.0 0.00 2.13 2.13 66 1017.8
20260901210003 23 0 0.0 0.0 0.00 2.13 2.13 65 1017.8
20260901205503 23 0 0.0 0.0 0.00 2.13 2.13 65 1018.0
20260901205003 23 44 0.0 1.6 0.00 2.13 2.13 64 1017.9
20260901204503 23 30 0.0 3.2 0.00 2.13 2.13 64 1018.0
20260901204003 23 22 0.0 3.2 0.00 2.13 2.13 63 1017.9
20260901203524 23 22 0.0 3.2 0.00 2.13 2.13 63 1017.8
20260901203003 23 0 0.0 0.0 0.00 2.13 2.13 63 1017.8
20260901202503 23 0 0.0 0.0 0.00 2.13 2.13 63 1017.8
20260901202003 23 0 0.0 0.0 0.00 2.13 2.13 63 1017.8
20260901201503 23 0 0.0 0.0 0.00 2.13 2.13 63 1017.8
20260901201003 24 0 0.0 0.0 0.00 2.13 2.13 62 1017.8
20260901200503 24 0 0.0 0.0 0.00 2.13 2.13 62 1017.7
20260901200003 24 0 0.0 0.0 0.00 2.13 2.13 62 1017.7
20260901195503 24 0 0.0 0.0 0.00 2.13 2.13 62 1017.7
20260901195024 24 0 0.0 0.0 0.00 2.13 2.13 62 1017.8
20260901194503 24 0 0.0 0.0 0.00 2.13 2.13 62 1017.6
20260901194003 24 22 0.0 3.2 0.00 2.13 2.13 62 1017.4
20260901193503 24 22 0.0 4.8 0.00 2.13 2.13 62 1017.5
20260901193003 24 22 0.0 4.8 0.00 2.13 2.13 62 1017.7
20260901192503 24 0 0.0 0.0 0.00 2.13 2.13 62 1017.5
20260901192003 24 0 0.0 0.0 0.00 2.13 2.13 62 1017.5
20260901191503 25 0 0.0 0.0 0.00 2.13 2.13 61 1017.4
20260901191024 25 0 0.0 0.0 0.00 2.13 2.13 61 1017.3
20260901190503 25 0 0.0 0.0 0.00 2.13 2.13 61 1017.4
20260901190003 25 0 0.0 0.0 0.00 2.13 2.13 61 1017.2
20260901185524 25 0 0.0 0.0 0.00 2.13 2.13 60 1017.1
20260901185003 25 0 0.0 0.0 0.00 2.13 2.13 60 1017.1
20260901184503 25 0 0.0 0.0 0.00 2.13 2.13 59 1017.0
20260901184003 25 0 0.0 0.0 0.00 2.13 2.13 59 1017.0
20260901183524 25 0 0.0 0.0 0.00 2.13 2.13 59 1016.9
20260901183003 25 0 0.0 0.0 0.00 2.13 2.13 58 1016.9
20260901182503 25 0 0.0 0.0 0.00 2.13 2.13 59 1017.0
20260901182003 25 0 0.0 0.0 0.00 2.13 2.13 59 1016.9
20260901181503 25 0 0.0 0.0 0.00 2.13 2.13 58 1017.1
20260901181003 25 0 0.0 0.0 0.00 2.13 2.13 58 1016.8
20260901180503 26 0 0.0 0.0 0.00 2.13 2.13 57 1016.9
20260901180024 26 0 0.0 0.0 0.00 2.13 2.13 57 1016.8
20260901175503 26 0 0.0 0.0 0.00 2.13 2.13 56 1016.8
20260901175003 26 0 0.0 0.0 0.00 2.13 2.13 56 1016.8
20260901174503 26 0 0.0 0.0 0.00 2.13 2.13 56 1016.6
20260901174003 26 0 0.0 0.0 0.00 2.13 2.13 56 1016.7
20260901173503 26 0 0.0 0.0 0.00 2.13 2.13 56 1016.6
20260901173003 26 0 0.0 0.0 0.00 2.13 2.13 56 1016.6
20260901172503 26 0 0.0 0.0 0.00 2.13 2.13 56 1016.7
20260901172003 26 0 0.0 0.0 0.00 2.13 2.13 55 1016.4
20260901171503 27 0 0.0 0.0 0.00 2.13 2.13 55 1016.5
20260901171024 27 0 0.0 0.0 0.00 2.13 2.13 54 1016.4
20260901170503 27 0 0.0 0.0 0.00 2.13 2.13 53 1016.7
20260901170003 27 0 0.0 0.0 0.00 2.13 2.13 50 1016.5
20260901165503 27 0 0.0 0.0 0.00 2.13 2.13 49 1016.8
20260901165004 27 0 0.0 0.0 0.00 2.13 2.13 48 1016.6
20260901164503 28 0 0.0 0.0 0.00 2.13 2.13 46 1016.6
20260901164024 28 0 0.0 0.0 0.00 2.13 2.13 45 1016.6
20260901163524 28 135 1.6 4.8 0.00 2.13 2.13 45 1016.7
20260901163003 28 135 1.6 4.8 0.00 2.13 2.13 45 1016.8
20260901162503 28 205 1.6 4.8 0.00 2.13 2.13 45 1016.4
20260901162024 28 179 1.6 9.7 0.00 2.13 2.13 45 1016.7
20260901161503 28 202 4.8 9.7 0.00 2.13 2.13 45 1016.8
20260901161003 28 210 3.2 8.0 0.00 2.13 2.13 45 1016.8
20260901160503 29 0 0.0 0.0 0.00 2.13 2.13 44 1016.7
20260901160024 29 0 0.0 0.0 0.00 2.13 2.13 44 1016.8
20260901155503 29 202 1.6 6.4 0.00 2.13 2.13 44 1016.7
20260901155003 29 195 1.6 6.4 0.00 2.13 2.13 44 1016.8
20260901154503 29 182 1.6 6.4 0.00 2.13 2.13 44 1016.8
20260901154024 29 181 4.8 12.9 0.00 2.13 2.13 44 1016.8
20260901153503 29 199 6.4 12.9 0.00 2.13 2.13 44 1016.7
20260901153003 29 207 3.2 9.7 0.00 2.13 2.13 45 1016.7
20260901152503 29 184 3.2 9.7 0.00 2.13 2.13 45 1016.8
20260901152024 29 164 1.6 4.8 0.00 2.13 2.13 45 1016.9
20260901151503 29 178 3.2 11.3 0.00 2.13 2.13 46 1016.6
20260901151003 29 229 8.0 12.9 0.00 2.13 2.13 45 1016.7
20260901150503 29 230 9.7 12.9 0.00 2.13 2.13 45 1016.9
20260901150003 29 189 6.4 12.9 0.00 2.13 2.13 45 1016.8
20260901145503 29 115 8.0 12.9 0.00 2.13 2.13 45 1016.8
20260901145003 29 111 8.0 12.9 0.00 2.13 2.13 45 1016.9
20260901144503 29 134 3.2 12.9 0.00 2.13 2.13 45 1017.0
20260901144024 29 138 1.6 11.3 0.00 2.13 2.13 45 1016.9
20260901143524 29 198 3.2 11.3 0.00 2.13 2.13 46 1016.9
20260901143003 29 198 3.2 8.0 0.00 2.13 2.13 46 1017.0
20260901142503 29 146 6.4 12.9 0.00 2.13 2.13 46 1017.1
20260901142003 29 167 8.0 12.9 0.00 2.13 2.13 46 1017.1
20260901141524 29 199 4.8 12.9 0.00 2.13 2.13 47 1016.9
20260901141003 29 165 1.6 6.4 0.00 2.13 2.13 48 1017.0
20260901140503 28 191 1.6 6.4 0.00 2.13 2.13 48 1017.1
20260901140003 28 137 6.4 12.9 0.00 2.13 2.13 48 1017.1
20260901135503 28 147 8.0 12.9 0.00 2.13 2.13 48 1017.2
20260901135003 28 165 4.8 12.9 0.00 2.13 2.13 48 1017.1
20260901134503 28 216 3.2 11.3 0.00 2.13 2.13 49 1017.1
20260901134003 28 242 3.2 11.3 0.00 2.13 2.13 51 1017.2
20260901133524 28 187 4.8 11.3 0.00 2.13 2.13 50 1017.3
20260901133003 28 144 3.2 8.0 0.00 2.13 2.13 50 1017.3
20260901132503 28 59 1.6 4.8 0.00 2.13 2.13 50 1017.4
20260901132003 28 115 3.2 8.0 0.00 2.13 2.13 50 1017.4
20260901131503 28 115 4.8 9.7 0.00 2.13 2.13 50 1017.3
20260901131003 28 176 8.0 11.3 0.00 2.13 2.13 50 1017.6
20260901130503 28 187 9.7 12.9 0.00 2.13 2.13 50 1017.5
20260901130003 28 171 6.4 12.9 0.00 2.13 2.13 50 1017.5
20260901125503 28 223 4.8 12.9 0.00 2.13 2.13 51 1017.6
20260901125024 28 208 8.0 12.9 0.00 2.13 2.13 51 1017.7
20260901124503 28 133 6.4 11.3 0.00 2.13 2.13 51 1017.8
20260901124003 28 167 6.4 11.3 0.00 2.13 2.13 51 1017.8
20260901123503 28 176 3.2 11.3 0.00 2.13 2.13 52 1017.9
20260901123003 28 137 6.4 11.3 0.00 2.13 2.13 52 1017.9
20260901122503 28 188 8.0 12.9 0.00 2.13 2.13 51 1017.8
20260901122003 28 204 9.7 12.9 0.00 2.13 2.13 52 1017.9
20260901121503 28 191 6.4 12.9 0.00 2.13 2.13 52 1017.9
20260901121003 28 178 1.6 12.9 0.10 2.13 2.13 52 1018.0
20260901120503 27 153 1.6 6.4 0.13 2.13 2.13 51 1018.1
20260901120003 27 171 4.8 9.7 0.13 2.13 2.13 51 1018.0
20260901115503 27 178 8.0 9.7 0.13 2.13 2.13 51 1018.0
20260901115003 27 152 6.4 9.7 0.13 2.13 2.13 52 1018.0
20260901114526 27 94 3.2 9.7 0.13 2.13 2.13 52 1018.1
20260901114005 27 208 3.2 9.7 0.71 2.13 2.13 56 1018.1
20260901113505 27 224 3.2 9.7 0.84 2.13 2.13 52 1018.0
20260901113005 27 205 4.8 9.7 1.75 2.13 2.13 52 1018.1
20260901112505 27 201 4.8 9.7 2.11 2.13 2.13 51 1018.1
20260901112005 27 222 3.2 9.7 2.11 2.13 2.13 51 1018.4
20260901111505 28 268 1.6 6.4 2.11 2.13 2.13 50 1018.4
20260901111005 28 336 0.0 3.2 2.01 2.03 2.03 48 1018.1
20260901110505 30 309 1.6 6.4 1.98 2.01 2.01 46 1018.3
20260901110005 30 312 1.6 11.3 1.98 2.01 2.01 46 1018.5
20260901105505 31 315 1.6 11.3 1.98 2.01 2.01 47 1018.3
20260901105005 32 262 0.0 1.6 1.98 2.01 2.01 45 1018.5
20260901104505 32 208 0.0 1.6 1.98 2.01 2.01 51 1018.3
20260901104026 32 135 0.0 1.6 1.37 1.42 1.45 53 1018.3
20260901103505 30 113 1.6 6.4 1.27 1.30 1.30 56 1018.5
20260901103005 28 72 1.6 6.4 0.36 0.38 0.38 57 1018.5
20260901102505 27 80 1.6 4.8 0.00 0.03 0.03 60 1018.5
20260901102005 27 76 3.2 8.0 0.00 0.03 0.03 63 1018.5
20260901101505 26 55 3.2 8.0 0.00 0.03 0.03 63 1018.5
20260901101005 25 304 0.0 3.2 0.00 0.03 0.03 62 1018.5
20260901100526 26 315 0.0 1.6 0.00 0.03 0.03 62 1018.6